{"data":{"norad_id":49087,"intl_designator":"2021-075N","name":"ONEWEB-0298","alt_names":[],"object_type":"PAYLOAD","status":"ACTIVE","operator":null,"country":"UK","launch_date":"2021-08-21","launch_site_code":"TYMSC","launch_vehicle":null,"mission":null,"orbit_class":"UNKNOWN","rcs_meters":null,"size_class":null,"mass_kg":null,"dimensions":null,"purposes":["comms"],"wikipedia_slug":null,"has_3d_model":false,"image_url":null,"decayed_at":null,"tle_current":{"epoch":"2026-09-20T04:31:06.049344Z","epoch_age_seconds":48962,"freshness":"FRESH","line1":"1 49087U 21075N   26263.18826446  .00000005  00000+0 -19548-4 0  9997","line2":"2 49087  87.9205 347.0020 0001955 103.4357 256.6992 13.17649481246139","mean_motion":13.17649481,"eccentricity":0.0001955,"inclination_deg":87.9205,"raan_deg":347.002,"arg_perigee_deg":103.4357,"mean_anomaly_deg":256.6992,"bstar":-1.9548e-5,"rev_number":24613,"period_min":109.28551339064,"perigee_km":1192.2311207925,"apogee_km":1195.1917135236,"semimajor_km":7571.8484171581,"source":"CELESTRAK","updated_at":"2026-09-20T09:00:44.633251Z"}}}